Tracking 35331 objects as of 15-Sep-2026
HD Live streaming from Space Station
objects crossing your sky now

STARLINK-30768

Track STARLINK-30768 now!
10-day predictions
STARLINK-30768 is classified as:


NORAD ID: 58120
Int'l Code: 2023-162C
Launch date: October 22, 2023
Source: United States (US)
Launch site: AIR FORCE EASTERN TEST RANGE (AFETR)
Your satellite tracking list
Your tracking list is empty




NASA's NSSDC Master Catalog

Two Line Element Set (TLE):
1 58120U 23162C   26257.08288430 -.00000755  00000-0 -17907-4 0  9992
2 58120  43.0041 148.1918 0001092 274.7891  85.2836 15.27574714161128
Source of the keplerian elements: AFSPC